Temp
6 5 6 8 8 9 8 9 10 10 10 10 10 10 11 11 10 13 13 13 14 14 15 16 17 17 17 17 17 17 17 16 16 16 16 16 16 16 15 15 15 15 15 14
6 6 6 7 9 8 9 8 9 11 10 11 10 10 11 10 10 11 11 13 13 13 15 16 17 17 17 17 18 18 17 17 17 17 16 16 16 16 16 15 15 15 15 14
7 6 6 8 8 9 8 9 8 10 9 11 10 10 10 11 10 11 11 12 12 12 14 16 16 17 17 17 17 17 17 17 17 17 16 16 16 16 15 15 15 15 14 14
7 6 6 8 8 9 9 9 9 9 10 9 11 10 10 11 11 10 11 13 13 12 15 15 15 16 17 17 17 16 16 16 16 16 16 16 16 15 15 15 15 15 14 14
6 6 6 8 9 9 9 9 9 9 9 10 10 10 11 10 11 11 11 13 13 14 14 15 15 15 16 15 15 15 15 15 15 15 15 15 15 15 14 14 14 14 14 13
5 7 7 8 7 9 8 8 8 7 9 9 9 10 10 10 11 12 13 13 13 14 14 15 14 14 14 14 14 14 14 14 14 14 14 14 14 13 13 13 12 12 12 12
6 6 6 7 8 8 8 8 8 8 8 8 7 8 11 11 10 11 12 13 14 14 14 15 14 14 14 13 13 13 13 13 13 13 12 12 12 12 12 12 12 11 11 11
7 7 7 6 8 8 8 8 7 8 8 8 7 8 11 10 10 10 11 12 13 14 13 14 14 14 13 13 13 13 12 12 12 11 11 11 11 11 11 11 10 10 10 10
7 6 6 6 7 7 8 6 7 4 3 6 8 8 9 9 10 10 10 11 12 12 11 12 12 12 12 11 11 11 11 11 11 11 10 10 10 9 9 9 9 9 9 9
6 7 6 7 7 7 8 7 7 4 6 7 7 7 10 11 11 9 9 9 10 11 10 10 10 10 11 11 11 10 10 10 10 10 10 9 9 8 8 8 8 8 8 8
6 7 6 8 7 7 7 6 5 6 6 8 7 9 7 9 9 8 7 8 10 9 9 9 9 10 10 10 10 10 10 9 9 9 8 8 8 8 7 7 7 7 7 7
6 7 6 6 7 6 7 6 6 6 5 2 5 8 9 8 6 7 8 9 9 9 9 9 9 10 10 9 9 9 9 9 8 8 7 7 7 7 7 7 7 7 7 7
6 4 6 6 7 5 6 6 5 4 3 2 7 8 7 7 8 9 8 9 9 9 9 10 10 10 10 9 9 9 8 8 7 7 7 6 6 6 6 6 6 6 6 6
7 4 5 5 5 5 5 6 6 5 6 5 6 7 9 8 8 9 10 10 10 10 10 10 10 10 9 9 9 8 8 7 6 6 6 6 5 5 5 5 5 5 5 5
6 4 3 5 6 4 5 6 6 6 7 7 8 7 9 10 9 10 12 11 10 9 9 10 10 10 9 9 9 8 7 6 6 5 5 5 4 5 5 5 5 4 4 3
4 3 3 4 5 5 5 5 5 6 7 7 8 8 10 9 10 9 10 10 10 10 10 10 10 10 10 9 9 8 7 6 5 5 4 4 4 4 4 4 3 3 2 2
4 3 3 4 4 5 5 6 5 6 6 7 7 9 8 8 8 9 10 10 11 11 11 11 10 10 10 9 9 8 7 5 5 4 3 3 3 3 2 2 1 0 0 0
3 3 3 2 4 4 7 7 6 6 7 6 7 8 7 8 10 10 10 11 10 10 11 11 11 10 9 9 8 7 6 5 4 3 3 2 2 3 2 0 -1 -1 -1 -0
3 3 3 3 2 4 7 6 5 6 7 6 6 7 7 7 8 9 11 11 12 11 11 11 11 10 9 8 8 6 5 4 4 3 3 2 2 1 -0 -1 -1 -1 -1 -0
3 3 3 2 3 5 6 7 7 6 6 7 6 5 5 5 6 7 10 11 10 10 11 11 10 9 8 8 7 6 5 4 3 2 2 1 0 -1 -1 -1 -1 -1 -0 -0
4 4 5 6 5 4 4 6 6 6 7 7 6 6 5 4 6 8 9 8 9 10 10 10 9 8 8 7 7 6 4 4 2 2 1 -0 -1 -1 -2 -2 -1 -1 -1 -0
4 3 3 4 5 4 6 6 6 7 8 8 7 7 6 6 6 7 7 8 8 8 8 8 8 7 7 7 6 5 4 3 2 1 -0 -1 -1 -1 -2 -1 -1 -1 -0 -0
4 4 4 4 4 6 7 8 9 8 8 8 8 8 7 7 7 7 7 7 7 7 7 7 6 6 6 6 6 5 4 3 2 2 -0 -1 -1 -2 -2 -1 -1 -1 -0 -0
4 4 4 5 6 5 8 9 9 8 8 8 8 8 8 8 7 7 7 7 7 7 7 7 6 6 6 5 5 5 4 3 3 2 0 -1 -1 -2 -1 -1 -1 -0 -0 0
5 3 4 3 4 6 8 8 9 8 8 7 7 7 8 7 8 7 7 7 6 6 6 6 6 6 5 5 5 4 4 3 3 2 1 -0 -1 -1 -0 -0 -0 0 -0 -0
4 4 4 5 7 7 8 8 8 8 8 7 7 7 7 7 7 6 6 6 6 6 6 5 5 5 5 5 5 4 4 3 3 2 2 1 1 1 0 0 0 0 0 1
Height
1494 1499 1496 1497 1501 1499 1505 1510 1513 1518 1521 1525 1526 1528 1525 1526 1525 1521 1524 1527 1530 1530 1532 1534 1536 1537 1539 1542 1543 1546 1548 1550 1551 1553 1555 1556 1557 1559 1561 1562 1563 1563 1564 1564
1496 1493 1498 1499 1500 1502 1504 1513 1516 1515 1516 1521 1524 1525 1523 1523 1523 1519 1521 1523 1527 1528 1530 1532 1534 1535 1537 1539 1540 1542 1544 1546 1548 1550 1552 1553 1554 1555 1556 1557 1558 1558 1558 1558
1488 1491 1499 1499 1501 1504 1509 1510 1516 1516 1519 1522 1524 1524 1520 1517 1518 1518 1518 1520 1523 1524 1526 1528 1531 1532 1534 1536 1537 1539 1541 1542 1544 1546 1548 1549 1550 1551 1552 1552 1552 1553 1553 1553
1490 1494 1497 1497 1500 1503 1509 1508 1510 1515 1518 1526 1520 1521 1513 1510 1511 1513 1515 1512 1513 1518 1522 1523 1527 1528 1530 1532 1534 1535 1537 1539 1541 1542 1544 1545 1546 1547 1547 1547 1547 1547 1547 1547
1492 1493 1499 1497 1499 1501 1506 1507 1510 1515 1520 1520 1522 1523 1505 1505 1506 1502 1506 1504 1510 1512 1518 1521 1522 1523 1525 1528 1530 1532 1534 1536 1537 1538 1540 1540 1541 1542 1542 1542 1542 1541 1541 1541
1493 1495 1497 1496 1501 1501 1504 1509 1514 1520 1520 1523 1517 1518 1502 1503 1495 1500 1505 1506 1508 1508 1512 1516 1518 1520 1522 1525 1527 1529 1531 1532 1534 1535 1536 1536 1536 1537 1537 1537 1537 1536 1536 1536
1494 1496 1499 1498 1502 1504 1504 1509 1523 1527 1528 1524 1522 1523 1502 1497 1495 1496 1496 1498 1499 1500 1504 1508 1511 1516 1519 1522 1524 1526 1527 1528 1530 1531 1532 1532 1532 1532 1533 1533 1533 1533 1532 1532
1491 1500 1499 1499 1500 1499 1504 1507 1518 1521 1524 1521 1527 1521 1500 1490 1491 1492 1492 1492 1493 1492 1495 1500 1505 1509 1514 1519 1521 1523 1524 1525 1526 1527 1528 1528 1528 1528 1529 1529 1529 1529 1528 1528
1491 1497 1499 1501 1500 1502 1506 1515 1515 1530 1542 1531 1516 1513 1496 1489 1489 1488 1486 1486 1487 1488 1491 1495 1500 1505 1510 1515 1518 1521 1522 1522 1523 1524 1524 1525 1525 1525 1524 1524 1524 1524 1524 1523
1493 1495 1500 1502 1500 1504 1504 1509 1516 1529 1530 1525 1522 1518 1499 1491 1490 1486 1485 1484 1484 1485 1488 1494 1500 1504 1508 1513 1515 1517 1519 1520 1521 1521 1522 1521 1521 1521 1521 1521 1521 1521 1520 1519
1490 1491 1503 1500 1504 1505 1509 1511 1516 1516 1523 1516 1521 1506 1496 1491 1488 1486 1483 1482 1481 1484 1489 1494 1500 1505 1508 1510 1513 1515 1516 1518 1519 1519 1519 1518 1518 1518 1518 1517 1517 1517 1516 1516
1490 1492 1501 1504 1503 1505 1506 1508 1511 1517 1525 1538 1529 1509 1490 1490 1487 1486 1483 1480 1482 1485 1490 1495 1500 1503 1506 1509 1511 1513 1514 1515 1516 1516 1515 1514 1514 1514 1514 1514 1513 1513 1513 1512
1488 1503 1505 1507 1506 1508 1507 1506 1510 1516 1523 1530 1514 1500 1488 1488 1485 1487 1486 1484 1483 1487 1492 1495 1499 1501 1503 1505 1508 1510 1512 1513 1513 1513 1512 1511 1511 1511 1511 1511 1511 1510 1510 1509
1484 1496 1497 1505 1500 1499 1505 1502 1505 1507 1510 1512 1498 1497 1485 1485 1485 1484 1484 1484 1485 1487 1491 1493 1495 1497 1500 1503 1505 1507 1508 1509 1510 1509 1509 1508 1508 1508 1508 1507 1507 1506 1506 1506
1485 1497 1500 1495 1495 1499 1499 1497 1498 1499 1496 1498 1488 1488 1483 1481 1482 1482 1481 1481 1483 1486 1488 1490 1492 1494 1496 1499 1501 1503 1504 1505 1506 1506 1506 1506 1505 1504 1504 1503 1503 1502 1501 1502
1488 1501 1498 1498 1494 1496 1496 1496 1494 1492 1492 1486 1487 1476 1479 1478 1479 1479 1478 1479 1480 1482 1486 1487 1489 1490 1493 1496 1497 1499 1501 1502 1501 1502 1501 1502 1503 1501 1500 1500 1499 1499 1498 1500
1488 1495 1499 1501 1496 1493 1494 1484 1486 1484 1481 1481 1484 1464 1476 1474 1475 1474 1474 1475 1474 1474 1478 1482 1484 1486 1489 1492 1494 1495 1497 1498 1497 1497 1498 1499 1499 1498 1497 1496 1497 1497 1497 1498
1490 1494 1499 1506 1498 1503 1474 1474 1476 1477 1474 1476 1472 1468 1471 1470 1469 1469 1468 1468 1467 1471 1475 1478 1481 1484 1486 1488 1489 1490 1491 1493 1493 1493 1494 1496 1496 1495 1494 1494 1495 1496 1496 1496
1484 1491 1500 1504 1512 1489 1471 1473 1475 1475 1469 1468 1469 1467 1466 1466 1467 1462 1463 1464 1464 1467 1471 1474 1477 1479 1482 1483 1485 1486 1486 1487 1488 1489 1491 1493 1493 1490 1492 1491 1493 1493 1494 1496
1487 1487 1494 1505 1505 1491 1475 1469 1469 1471 1474 1465 1466 1465 1463 1463 1465 1456 1459 1460 1461 1464 1467 1470 1472 1475 1478 1480 1481 1482 1482 1483 1484 1487 1488 1488 1487 1488 1488 1488 1490 1492 1494 1496
1490 1489 1489 1487 1490 1486 1472 1469 1470 1478 1474 1464 1462 1460 1459 1460 1458 1457 1456 1456 1459 1461 1464 1467 1470 1473 1475 1477 1478 1479 1480 1482 1483 1483 1483 1483 1483 1484 1485 1487 1488 1491 1493 1496
1485 1491 1492 1492 1490 1490 1467 1471 1472 1465 1462 1461 1459 1457 1456 1457 1456 1456 1456 1457 1459 1461 1463 1466 1468 1471 1473 1474 1475 1476 1477 1479 1478 1478 1478 1479 1480 1481 1483 1485 1487 1490 1492 1495
1483 1476 1480 1481 1477 1464 1463 1462 1462 1461 1460 1459 1458 1456 1456 1456 1457 1457 1457 1459 1460 1462 1464 1465 1468 1469 1470 1471 1472 1473 1474 1474 1474 1475 1475 1476 1478 1479 1481 1483 1486 1488 1490 1493
1470 1469 1472 1471 1460 1459 1459 1459 1457 1458 1458 1457 1456 1455 1456 1456 1456 1457 1458 1460 1461 1463 1464 1465 1466 1466 1467 1468 1469 1470 1471 1471 1472 1472 1472 1473 1474 1476 1478 1481 1483 1485 1488 1490
1466 1467 1465 1465 1458 1456 1454 1454 1454 1454 1454 1455 1455 1455 1455 1456 1457 1458 1459 1460 1461 1462 1462 1463 1464 1465 1465 1465 1466 1467 1467 1468 1468 1468 1469 1469 1471 1473 1476 1478 1481 1482 1485 1487
1458 1456 1460 1457 1452 1452 1451 1451 1451 1451 1451 1453 1454 1454 1454 1455 1456 1457 1459 1459 1460 1460 1460 1461 1462 1462 1462 1462 1462 1463 1464 1465 1465 1465 1466 1466 1468 1470 1472 1474 1476 1478 1481 1482
Wind_Speed
14 4 11 10 4 3 7 5 9 5 9 6 12 5 7 8 10 21 17 24 26 25 14 12 12 14 15 14 12 13 13 13 14 14 15 16 16 17 17 17 18 19 19 19
5 2 10 7 5 6 11 8 4 2 7 8 8 12 9 12 6 17 23 28 25 25 21 18 16 17 18 17 16 16 15 15 15 16 18 20 20 20 20 21 21 22 23 24
7 2 12 7 5 8 2 9 5 5 5 3 7 7 7 8 13 11 27 32 31 31 25 24 20 19 20 20 21 20 19 18 17 18 19 21 21 21 22 22 23 24 25 25
3 11 17 10 6 6 4 5 6 9 9 4 5 4 11 14 12 15 24 39 36 34 18 19 25 23 21 22 22 20 19 18 18 18 18 19 19 20 21 21 22 23 23 24
2 11 12 8 8 5 4 5 6 3 4 3 3 2 4 7 16 19 29 35 30 36 31 22 24 23 23 21 20 19 17 17 17 18 19 19 20 21 22 23 24 25 25 25
3 10 2 2 3 1 9 7 7 4 3 3 4 6 4 4 14 14 23 27 32 37 32 27 23 23 22 21 19 18 16 15 15 15 16 17 17 17 16 16 16 16 17 17
7 3 1 1 7 1 4 6 2 1 2 4 2 3 11 6 5 7 15 26 35 38 32 30 28 27 24 21 19 16 14 13 13 13 14 13 14 14 14 15 16 16 16 16
3 3 6 1 2 5 3 4 4 6 4 3 3 5 5 4 6 8 15 14 12 15 26 33 34 31 28 22 17 14 12 11 11 10 10 10 11 12 13 14 15 16 17 17
4 2 3 3 1 2 3 3 3 6 2 2 1 4 10 3 6 7 10 10 15 16 22 32 33 30 27 21 15 12 11 10 9 9 9 9 9 10 11 12 13 14 14 15
2 5 4 2 3 8 2 5 2 3 3 3 3 4 4 3 6 6 7 13 12 13 21 28 30 27 21 16 14 12 10 9 8 8 9 9 10 10 11 11 11 12 13 14
2 2 2 3 1 5 1 2 4 3 2 3 1 4 5 5 4 7 12 10 10 13 19 26 25 21 18 16 13 10 9 8 8 8 9 9 10 11 12 12 13 13 14 14
4 3 3 2 1 2 1 3 3 3 3 1 2 6 4 5 6 6 14 4 6 13 20 22 21 19 17 15 12 11 10 9 9 10 10 10 11 11 11 12 12 12 12 12
6 2 4 2 0 2 3 4 3 4 3 6 4 4 3 4 3 2 4 2 10 18 22 22 21 19 17 15 13 12 11 11 10 11 11 11 10 11 11 11 11 11 12 11
5 3 5 6 5 4 5 6 7 5 4 3 9 4 10 6 4 6 3 5 13 20 24 23 22 21 19 16 13 12 12 12 12 11 11 11 12 12 12 12 12 12 12 11
2 2 3 3 3 4 5 6 12 15 12 12 4 15 18 13 9 10 13 11 17 23 25 25 23 21 18 17 15 14 15 14 13 12 12 12 12 12 12 12 11 11 10 10
2 2 2 2 3 4 3 7 9 15 15 17 17 27 11 14 15 12 12 12 20 26 26 25 22 21 20 18 15 14 15 15 14 13 12 12 12 11 11 11 9 8 6 7
3 4 2 3 2 1 5 10 13 7 7 13 15 25 4 8 10 22 30 20 23 30 29 26 24 22 19 16 15 15 14 16 14 13 13 13 13 12 11 10 8 7 6 7
5 4 2 2 2 1 4 2 4 13 11 13 13 14 8 11 19 23 23 18 21 25 26 23 21 20 18 17 15 15 15 15 15 14 13 13 14 13 11 9 8 8 8 8
2 4 2 2 2 6 1 1 5 5 4 7 13 15 21 23 15 20 16 12 13 21 20 17 15 16 17 15 13 14 14 14 15 14 14 15 14 12 10 9 9 10 10 11
4 4 3 2 1 4 4 2 4 3 4 4 6 9 11 6 5 6 12 13 16 16 16 16 15 15 15 14 12 12 12 14 14 14 14 15 14 12 11 11 11 13 13 13
1 1 4 4 3 7 6 5 6 3 4 5 6 10 10 5 10 6 5 7 11 12 13 13 12 12 12 11 10 11 13 13 12 14 14 14 11 11 11 12 13 14 15 15
6 5 3 2 4 7 6 4 5 4 3 5 8 8 3 7 4 4 5 7 8 8 9 10 10 11 11 10 9 10 10 10 11 11 11 9 10 12 13 14 16 17 16 15
3 6 4 7 6 5 8 10 7 6 7 5 5 4 2 4 2 5 7 8 7 6 6 7 8 9 10 10 10 9 8 10 10 10 9 9 11 13 15 16 18 17 17 15
4 6 3 1 4 11 20 18 19 15 12 7 4 1 1 4 6 5 6 6 6 5 3 0 2 4 6 8 9 9 11 10 10 10 9 11 13 15 17 17 17 17 16 14
3 7 4 5 7 13 18 18 16 10 10 7 5 5 6 6 7 5 5 4 4 4 4 7 7 5 5 8 10 11 12 12 11 10 10 13 14 17 18 18 17 16 14 14
8 6 5 5 5 4 5 5 5 9 9 8 7 6 6 6 6 5 5 4 5 6 7 8 9 11 12 13 12 13 13 13 13 13 13 14 16 18 19 19 19 19 17 16
Wind_Direction
179 132 202 171 124 141 114 123 167 134 174 163 195 215 249 217 247 260 249 263 282 284 266 234 215 208 213 216 217 219 228 229 230 235 243 250 258 263 262 265 268 265 266 267
154 204 193 144 107 126 135 120 139 93 166 180 182 233 217 196 231 232 241 247 266 277 270 250 220 216 218 222 226 229 231 233 237 242 247 252 259 261 263 263 265 263 265 267
185 130 167 178 134 119 86 157 163 146 138 205 164 249 223 202 198 232 240 242 262 267 275 246 234 219 217 221 226 227 229 231 236 242 248 252 257 260 260 262 264 265 266 267
180 133 165 160 163 140 144 180 151 140 135 199 189 260 220 210 214 206 229 239 252 259 257 242 232 227 224 223 223 223 222 226 234 240 244 248 254 258 261 262 263 264 265 266
111 135 178 141 171 163 164 140 134 116 111 164 165 259 254 200 219 211 222 228 242 258 254 255 226 217 214 214 213 214 219 227 234 240 246 252 256 260 264 265 264 264 264 265
9 119 60 177 88 19 143 96 60 55 61 271 197 202 260 203 226 223 222 230 252 257 251 234 220 215 210 210 212 217 223 230 240 247 252 257 260 262 262 261 261 262 263 264
110 98 357 300 96 28 101 91 90 98 204 219 25 199 262 275 237 213 207 222 234 244 243 225 213 212 212 212 213 218 229 242 253 260 260 257 256 256 257 258 261 263 264 265
124 147 179 334 202 143 120 141 151 174 197 221 125 216 249 234 281 260 252 247 229 231 228 214 208 207 206 207 212 224 239 251 253 254 259 262 263 262 263 263 264 265 266 268
138 104 137 80 120 45 185 79 151 108 30 23 239 285 281 251 286 273 272 260 251 242 218 206 199 196 196 199 207 219 229 235 245 256 264 268 270 270 271 272 273 274 276 277
164 104 26 132 117 36 93 153 86 12 134 236 307 278 241 332 291 309 320 282 259 230 208 199 191 187 188 195 206 212 217 227 238 251 263 272 277 277 276 276 277 278 280 281
126 83 53 152 123 164 115 110 51 114 130 177 276 261 214 248 311 308 301 297 252 215 192 184 180 183 188 194 200 210 223 238 251 258 265 269 271 273 274 275 276 278 281 283
187 87 104 96 349 65 319 185 148 141 221 81 129 263 219 261 296 322 305 308 216 192 179 178 181 186 192 197 205 216 232 243 254 266 273 275 274 272 272 273 276 279 280 280
172 131 117 49 168 28 205 186 129 108 90 196 173 249 181 281 8 354 273 212 170 175 180 185 192 198 202 205 212 226 239 249 258 267 271 270 268 268 269 273 275 277 276 275
125 139 156 181 198 135 189 187 174 165 199 176 230 282 283 244 291 310 287 198 192 187 191 195 199 204 207 212 223 238 247 251 259 265 266 264 264 267 271 273 273 273 273 269
83 122 123 201 176 138 181 201 200 209 218 222 223 235 243 259 287 269 279 236 207 206 204 206 208 208 214 220 232 241 246 250 256 261 264 267 265 268 274 276 276 274 264 258
20 161 134 310 159 170 237 231 226 225 234 246 252 263 252 261 284 288 272 236 223 217 215 215 216 216 220 226 237 246 249 250 254 258 261 261 262 268 275 276 276 274 254 235
94 130 91 275 357 30 291 226 206 214 220 226 238 247 183 279 254 248 259 251 246 225 215 218 222 223 226 233 240 242 248 249 251 257 261 261 263 271 272 267 263 256 229 208
128 105 83 200 16 307 243 151 195 218 245 224 255 260 247 261 269 267 266 266 245 227 216 222 224 226 227 229 236 238 243 246 248 251 257 261 264 268 264 253 243 228 203 184
93 120 105 156 217 289 318 159 162 172 284 217 234 259 264 265 268 272 265 263 248 224 219 219 227 227 228 232 237 242 241 242 246 250 254 256 267 268 251 235 224 204 189 175
69 93 117 134 178 250 237 233 195 151 284 197 214 257 270 264 228 252 249 258 231 215 218 221 213 215 222 229 241 248 245 243 244 249 256 261 267 252 237 219 207 193 182 170
107 126 192 202 250 284 244 252 148 114 234 302 293 299 283 197 230 294 269 214 194 196 194 198 204 213 217 227 237 241 240 240 240 247 256 265 249 233 221 208 195 187 177 175
172 159 197 136 215 263 183 114 181 217 287 299 320 322 273 220 272 224 177 168 168 177 185 196 205 210 218 227 236 240 242 235 245 252 259 238 224 216 209 196 186 181 184 185
226 186 183 183 211 237 208 239 247 267 288 289 308 331 213 192 206 138 136 138 144 156 174 186 206 224 235 238 245 244 240 248 253 257 249 225 216 211 204 191 189 192 193 197
234 177 209 136 245 238 254 258 271 265 268 274 276 120 169 195 158 144 140 136 133 129 119 232 244 247 249 250 250 245 245 248 252 256 242 227 220 211 202 199 201 202 206 209
208 150 193 253 280 270 264 258 268 264 247 244 223 185 160 157 140 146 164 188 219 230 231 245 246 266 280 273 264 254 254 254 255 257 246 231 222 216 210 209 212 211 213 220
195 194 175 230 240 247 266 276 277 238 233 222 223 214 197 199 204 211 224 237 250 260 264 266 262 256 251 257 260 256 254 255 257 258 254 239 227 222 218 217 217 217 220 232